Weather History for Taunton, MA

Change the Weather History Date:

Friday, November 8, 2013

  Actual Average Record
Temperature  
Mean Temperature 40 °F -  
Max Temperature 51 °F 52 °F 69 °F (1949)
Min Temperature 30 °F 34 °F 15 °F (1960)
Degree Days  
Heating Degree Days 24    
Moisture  
Dew Point 26 °F    
Average Humidity 58    
Maximum Humidity 89    
Minimum Humidity 36    
Precipitation  
Precipitation 0.00 in - - ()
Sea Level Pressure  
Sea Level Pressure 29.95 in    
Wind  
Wind Speed 6 mph (WNW)    
Max Wind Speed 14 mph    
Max Gust Speed 26 mph    
Visibility 10 miles    
Events      
Averages and records for this station are not official NWS values.
T = Trace of Precipitation, MM = Missing Value Source: NWS Daily Summary

Daily Weather History Graph

Daily Weather History Graph

Search for Another Location

Airport:

Trip Planner

Search our weather history database for the weather conditions in past years. The results will help you decide how hot, cold, wet, or windy it might be!

Date:

Astronomy

Nov. 08, 2013 Rise Set
Actual Time 6:25 AM EST 4:29 PM EST
Civil Twilight 5:55 AM EST 4:59 PM EST
Nautical Twilight 5:22 AM EST 5:32 PM EST
Astronomical Twilight 4:49 AM EST 6:05 PM EST
Moon 11:18 AM EST (11/8) 9:47 PM EST (11/8)
Length of Visible Light 11h 03m
Length of Day
10h 04m
Waxing Crescent, 33% of the Moon is Illuminated
Nov 8
Waxing Crescent
Nov 10
First Quarter
Nov 17
Full
Nov 25
Last Quarter
Dec 2
New

Hourly Weather History & Observations

Time (EST) Temp. Windchill Dew Point Humidity Pressure Visibility Wind Dir Wind Speed Gust Speed Precip Events Conditions
12:52 AM 39.0 °F 36.8 °F 32.0 °F 76% 29.83 in 10.0 mi West 3.5 mph - N/A   Clear
1:52 AM 34.0 °F - 30.9 °F 89% 29.84 in 10.0 mi Calm Calm - N/A   Clear
2:52 AM 37.0 °F 32.4 °F 28.9 °F 73% 29.85 in 10.0 mi WNW 5.8 mph - N/A   Clear
3:52 AM 35.1 °F 31.0 °F 27.0 °F 72% 29.88 in 10.0 mi West 4.6 mph - N/A   Clear
4:52 AM 34.0 °F 31.0 °F 24.1 °F 67% 29.89 in 10.0 mi WNW 3.5 mph - N/A   Clear
5:52 AM 30.0 °F 26.5 °F 26.1 °F 85% 29.91 in 10.0 mi West 3.5 mph - N/A   Clear
6:52 AM 33.1 °F - 25.0 °F 72% 29.93 in 10.0 mi Calm Calm - N/A   Clear
7:52 AM 37.9 °F 33.5 °F 28.0 °F 68% 29.94 in 10.0 mi West 5.8 mph - N/A   Clear
8:52 AM 43.0 °F 37.7 °F 33.1 °F 68% 29.94 in 10.0 mi West 9.2 mph - N/A   Overcast
9:52 AM 45.0 °F 40.6 °F 33.1 °F 63% 29.93 in 10.0 mi West 8.1 mph 18.4 mph N/A   Partly Cloudy
10:52 AM 48.0 °F - 32.0 °F 54% 29.91 in 10.0 mi WNW 9.2 mph 21.9 mph N/A   Scattered Clouds
11:52 AM 50.0 °F - 30.9 °F 48% 29.89 in 10.0 mi NW 13.8 mph 20.7 mph N/A   Scattered Clouds
12:52 PM 48.0 °F - 27.0 °F 44% 29.88 in 10.0 mi West 11.5 mph 19.6 mph N/A   Partly Cloudy
1:52 PM 51.1 °F - 28.0 °F 41% 29.89 in 10.0 mi West 11.5 mph 24.2 mph N/A   Mostly Cloudy
2:52 PM 46.9 °F - 24.1 °F 41% 29.91 in 10.0 mi West 13.8 mph 19.6 mph N/A   Partly Cloudy
3:52 PM 46.9 °F - 21.0 °F 36% 29.92 in 10.0 mi WNW 12.7 mph 26.5 mph N/A   Mostly Cloudy
4:52 PM 45.0 °F 40.1 °F 19.9 °F 37% 29.95 in 10.0 mi WNW 9.2 mph 21.9 mph N/A   Scattered Clouds
5:52 PM 44.1 °F 38.6 °F 21.9 °F 42% 29.99 in 10.0 mi WNW 10.4 mph 24.2 mph N/A   Mostly Cloudy
6:52 PM 42.1 °F 35.7 °F 21.0 °F 43% 30.02 in 10.0 mi WNW 11.5 mph 19.6 mph N/A   Clear
7:52 PM 39.9 °F 35.8 °F 19.9 °F 45% 30.06 in 10.0 mi WNW 5.8 mph - N/A   Clear
8:52 PM 39.0 °F 34.0 °F 19.9 °F 46% 30.08 in 10.0 mi WNW 6.9 mph - N/A   Clear
9:52 PM 37.0 °F 32.4 °F 19.9 °F 50% 30.09 in 10.0 mi West 5.8 mph - N/A   Clear
10:52 PM 34.0 °F 29.8 °F 21.0 °F 59% 30.09 in 10.0 mi West 4.6 mph - N/A   Clear
11:52 PM 34.0 °F 28.8 °F 23.0 °F 64% 30.12 in 10.0 mi West 5.8 mph - N/A   Clear